Wind_Speed
2 2 2 1 1 0 1 2 3 3 3 4 5 5 5 5 5 5 5 6 6 7 7 8 7 7 7 7 7 7 7 7 7 8 8 9 9 9 9 9 9 9 10 11 11 11 11 11 11
2 2 1 1 1 1 1 2 2 3 4 4 5 5 5 5 6 6 6 6 6 7 7 7 7 7 8 8 8 8 8 8 8 8 9 9 9 9 10 10 10 11 11 11 11 11 11 11 11
2 2 2 1 2 2 2 3 3 3 4 4 5 5 5 5 6 6 6 6 7 7 7 7 8 8 8 8 8 8 8 8 9 9 9 9 10 10 10 11 11 11 12 12 12 11 11 11 12
2 2 2 2 2 2 3 3 3 3 4 5 5 5 6 6 6 6 6 6 6 7 7 7 7 7 7 8 7 7 7 8 8 9 9 9 10 10 11 11 11 10 11 11 11 11 11 11 11
2 3 3 3 2 3 4 4 4 4 4 4 5 5 5 5 5 6 6 6 7 7 7 6 6 7 7 8 7 7 7 8 8 9 9 9 9 9 10 10 10 10 9 8 9 10 10 10 10
2 3 2 2 3 3 4 4 5 5 4 5 5 5 5 5 6 6 6 6 6 7 7 7 7 7 7 7 7 7 7 7 8 8 8 9 9 9 9 8 9 9 8 8 8 9 10 10 10
3 3 2 2 3 4 4 4 5 5 4 5 5 5 5 5 6 6 6 7 7 7 8 8 8 7 7 7 7 7 7 7 7 8 8 8 7 8 8 8 7 8 8 8 7 7 8 9 9
2 3 3 3 3 4 4 4 5 5 5 5 5 5 5 5 6 7 7 7 8 8 8 8 7 7 7 7 6 7 7 7 7 7 7 7 8 7 8 7 8 8 8 7 8 8 9 9 9
2 3 3 4 4 4 4 5 5 5 5 5 5 5 5 6 7 7 7 7 8 8 8 8 8 8 8 7 7 7 7 7 7 7 7 7 8 8 8 8 7 7 7 7 8 9 9 9 9
2 4 3 4 4 5 5 5 6 6 6 5 5 6 6 7 7 8 7 7 8 8 8 8 8 8 8 8 8 7 7 7 7 7 7 7 8 8 8 7 7 7 7 7 8 9 9 10 10
2 3 3 4 5 5 5 5 6 6 7 7 7 7 7 7 7 8 7 7 8 8 8 8 8 8 8 8 8 7 7 7 7 7 7 7 7 8 8 7 7 7 7 8 8 8 8 9 10
3 3 4 4 5 5 6 6 6 6 7 8 8 7 7 7 7 7 7 7 8 8 8 8 9 8 8 8 8 8 8 7 7 7 7 7 7 7 7 7 7 7 8 8 8 8 8 8 9
3 4 4 5 5 5 6 6 6 6 7 7 8 8 7 8 8 8 8 7 8 8 8 8 8 8 8 8 8 8 8 7 7 7 7 7 7 8 7 8 8 8 8 8 9 8 9 8 8
4 4 5 5 5 5 6 6 7 7 7 8 8 8 8 8 8 8 8 8 8 8 8 8 8 8 8 8 8 8 8 8 8 7 7 7 8 7 8 8 8 8 8 8 8 8 9 8 8
4 5 5 5 6 6 6 6 7 7 7 8 8 9 9 9 8 8 8 9 9 8 8 8 8 8 8 8 8 8 8 8 8 8 8 8 8 8 8 8 8 8 8 8 8 8 9 9 8
6 6 6 6 7 7 7 7 8 8 8 8 9 9 9 9 9 8 8 8 9 8 8 8 8 8 8 8 9 9 9 8 8 8 8 8 9 9 8 8 8 8 8 8 8 8 9 8 7
6 6 7 7 7 7 8 8 8 8 9 9 9 8 9 9 8 8 9 8 9 8 8 8 8 8 8 9 9 9 9 8 8 8 9 9 9 9 9 8 8 8 8 8 7 8 7 7 7
6 7 7 8 8 9 8 8 9 10 9 9 9 9 9 9 9 9 9 9 9 9 8 8 8 8 8 9 9 9 9 8 8 9 9 9 9 9 9 8 8 8 8 8 7 7 7 7 7
7 7 8 9 9 9 9 10 10 10 10 10 10 10 10 10 10 9 9 9 9 9 9 8 8 8 8 8 9 9 9 9 9 9 10 10 9 8 8 8 8 8 8 7 7 7 7 8 8
8 8 9 9 9 9 10 10 10 10 11 11 11 10 11 11 10 9 9 10 10 10 9 8 8 8 8 9 9 9 9 9 9 9 9 9 9 9 8 8 8 8 7 7 7 7 8 8 9
9 9 9 9 9 10 10 10 10 10 11 11 11 11 11 11 10 10 10 10 10 10 10 9 9 9 9 9 10 10 10 10 10 10 9 9 9 8 8 8 8 8 7 7 7 8 8 8 9
10 9 9 9 10 9 11 11 11 12 12 11 11 12 11 11 11 11 11 11 10 10 10 9 9 9 10 10 10 10 10 11 11 10 10 9 9 8 8 7 7 8 8 8 8 7 7 8 8
11 10 10 10 10 11 11 12 11 14 13 12 12 13 12 12 12 12 12 11 11 10 10 10 10 10 10 11 11 11 11 11 11 11 10 10 9 9 8 8 7 7 7 7 8 8 8 9 9
12 12 11 11 12 12 12 13 13 14 14 14 14 14 14 13 13 13 13 12 12 11 11 11 11 11 11 12 12 12 12 12 12 11 10 10 9 8 8 8 8 8 8 8 8 9 9 10 10
13 13 12 12 12 11 13 14 15 15 15 15 16 15 14 14 14 14 13 13 13 13 12 12 11 12 12 12 12 12 12 12 12 12 11 11 10 9 9 8 8 8 9 9 10 10 10 10 10
14 14 12 11 11 12 15 16 16 16 16 16 16 16 16 15 15 14 14 14 13 13 13 12 12 12 12 12 13 13 12 12 12 12 11 11 11 10 10 9 9 10 10 10 10 11 11 11 11
15 15 14 14 14 14 16 17 17 17 17 17 17 16 16 15 15 15 15 14 14 14 14 13 13 13 13 13 13 13 12 12 12 12 11 11 11 11 11 11 11 11 11 11 12 11 11 11 11
16 16 16 16 15 14 15 17 18 17 17 17 17 16 17 17 16 16 16 15 14 14 14 14 14 14 13 13 13 12 12 12 12 12 12 12 12 12 12 12 12 12 12 12 12 12 12 12 12
17 17 18 18 17 15 16 18 18 18 19 18 18 18 18 17 17 17 17 16 15 15 14 14 14 14 14 14 13 13 13 13 13 13 13 13 13 13 13 13 13 13 13 13 13 13 13 13 13
18 18 19 19 18 18 19 20 20 20 19 19 20 19 18 18 18 18 18 17 16 16 15 15 15 14 14 14 14 14 14 14 14 14 14 14 14 14 14 14 14 14 14 14 14 14 15 15 15
Wind_Direction
84 87 92 102 141 241 288 310 315 315 316 316 320 326 328 323 317 304 301 302 301 298 299 305 301 296 294 288 283 278 278 275 268 263 259 256 257 258 256 254 254 251 252 252 251 248 246 247 245
82 98 102 100 57 357 322 329 329 330 326 323 323 325 326 324 322 315 310 308 304 303 302 300 303 299 301 299 287 281 279 277 277 273 269 267 263 262 262 257 262 260 259 257 254 250 245 247 247
85 94 95 74 40 7 344 335 327 320 320 321 323 326 324 325 321 318 317 317 310 307 307 303 301 303 304 306 295 287 283 278 277 277 275 274 270 269 270 264 264 265 266 266 258 252 249 249 250
73 75 67 46 17 357 350 341 326 312 313 316 319 321 320 323 321 320 322 326 322 316 316 314 308 308 306 305 297 291 287 285 281 278 278 279 279 274 273 273 268 269 273 271 261 253 253 254 251
73 70 55 35 8 352 346 332 324 317 314 315 318 322 321 325 323 321 323 326 328 322 320 321 320 316 313 309 300 300 291 286 283 280 280 279 281 280 275 276 273 272 274 270 263 254 257 259 253
57 58 36 14 352 349 341 335 327 322 322 322 321 323 324 326 324 323 321 324 325 324 325 326 325 322 318 315 317 314 305 295 286 284 280 281 281 282 282 279 275 271 272 267 261 260 258 262 261
52 49 27 356 351 351 343 338 333 327 323 323 324 327 323 327 327 325 322 324 323 319 321 324 323 321 320 317 311 310 308 305 294 287 283 285 286 288 286 283 278 273 271 271 266 265 262 258 260
45 43 18 1 349 354 348 346 345 340 330 325 327 329 330 333 332 331 328 326 324 320 319 322 322 320 319 318 314 310 308 306 300 296 293 290 288 289 287 285 285 279 277 280 273 267 268 264 262
33 23 8 0 350 353 353 353 347 341 335 330 329 328 329 330 330 329 331 330 328 329 326 327 327 325 322 319 314 313 310 307 303 297 293 290 293 293 290 284 281 284 284 280 279 277 273 274 269
23 17 9 352 350 356 353 349 344 341 341 335 327 323 320 323 327 331 331 330 331 330 329 327 327 325 324 323 321 316 311 306 305 301 295 293 294 294 292 284 285 285 284 282 280 282 278 275 273
3 357 351 342 345 348 346 340 339 342 341 338 331 327 320 322 326 331 331 329 331 331 332 331 330 328 327 326 323 316 312 310 307 304 299 297 297 295 291 286 290 289 287 285 284 286 280 278 275
348 343 344 342 340 342 339 335 334 336 336 334 332 326 325 325 328 333 333 331 332 334 334 332 330 331 329 327 324 319 318 313 311 309 306 301 297 296 291 291 295 292 293 290 286 289 283 280 275
337 335 335 333 330 332 333 331 331 333 335 332 334 330 328 326 325 330 333 335 333 335 336 334 332 334 333 331 328 323 321 319 320 314 311 306 306 306 298 291 293 293 295 293 289 287 290 289 281
323 318 321 324 322 324 328 328 327 330 332 333 334 336 331 331 332 332 333 332 329 331 333 331 331 330 331 331 330 326 322 318 319 315 314 313 309 309 305 296 294 297 297 294 291 289 293 294 284
302 304 314 324 324 321 319 323 325 328 330 330 332 333 334 331 331 331 333 331 327 328 330 328 326 326 329 329 327 324 322 319 317 314 314 313 309 304 301 300 299 303 301 297 296 295 297 300 291
297 303 313 323 323 318 316 319 322 324 325 325 326 328 332 334 333 332 329 327 323 325 329 327 327 329 330 327 325 322 318 315 315 314 313 313 312 308 304 301 299 303 303 301 303 301 299 302 297
296 300 310 316 318 317 316 319 320 319 318 318 321 326 327 329 331 326 323 325 322 321 323 323 325 327 328 327 325 323 321 317 315 313 311 310 310 309 306 303 301 304 304 303 307 303 303 306 306
292 297 303 308 310 313 315 316 317 315 313 315 318 321 322 324 326 321 320 323 322 321 320 320 319 320 325 327 327 326 326 323 318 314 313 312 309 308 306 303 302 303 302 301 304 304 307 310 310
281 287 293 296 302 306 309 311 311 309 309 311 313 314 315 316 317 316 318 321 320 318 318 318 316 317 321 325 326 325 324 323 319 317 313 311 307 304 303 305 304 302 298 293 295 298 303 309 307
277 280 281 288 299 301 306 308 309 310 309 310 311 308 307 310 314 315 315 318 316 316 314 314 312 312 317 320 322 323 324 323 320 318 314 311 310 304 299 302 303 302 297 298 297 296 300 303 305
272 279 281 288 294 298 303 304 306 307 307 306 305 305 305 308 310 312 312 311 312 312 314 317 317 312 313 316 319 320 322 323 321 318 315 312 312 310 304 299 300 300 298 297 295 294 299 303 305
274 281 287 292 295 302 306 305 306 308 308 306 303 303 305 307 307 307 306 307 309 309 310 311 312 310 311 313 316 318 320 322 321 319 318 314 309 308 305 304 304 300 296 297 296 296 297 301 306
280 283 287 291 296 297 302 303 303 303 307 306 304 302 301 303 305 305 305 305 306 305 305 307 309 307 307 309 311 315 317 317 316 314 316 315 308 303 300 298 301 302 302 298 299 302 303 303 305
278 280 285 289 293 292 295 297 298 298 304 304 303 301 299 301 303 304 302 300 300 301 301 303 305 305 305 307 309 311 312 313 313 310 309 308 305 303 301 301 300 297 296 297 297 300 303 306 308
271 276 281 289 294 296 294 292 291 296 299 300 301 301 299 299 301 301 299 297 296 297 297 299 300 302 302 305 307 308 309 311 314 313 310 305 301 299 297 294 296 297 297 297 297 297 299 301 304
270 272 275 276 279 284 286 287 288 295 295 296 297 299 299 297 297 298 297 297 296 295 295 295 296 298 299 301 303 306 307 308 310 312 312 310 304 301 298 294 294 297 299 298 299 299 300 301 301
268 267 268 270 271 272 278 283 284 287 290 292 293 294 295 296 295 294 294 295 295 294 293 292 293 295 296 298 302 303 305 306 307 310 310 309 308 306 304 298 296 297 297 297 296 297 298 298 297
265 267 267 269 271 274 279 282 281 283 288 292 292 292 294 294 293 293 291 293 294 293 292 291 291 293 294 296 298 300 302 303 304 305 306 306 304 302 303 303 301 298 296 295 294 294 296 294 292
265 264 265 268 270 268 269 271 273 279 285 292 293 293 293 291 291 292 291 289 291 291 289 290 290 291 292 293 294 295 298 299 299 299 301 302 302 301 300 300 298 298 297 296 294 293 295 292 288
266 266 266 266 267 269 270 272 272 274 280 285 288 290 290 288 288 290 290 289 290 289 288 288 289 289 290 292 292 292 295 297 297 297 298 298 298 298 298 296 295 294 294 295 294 292 292 288 284
Height
5874 5874 5874 5875 5876 5875 5874 5874 5874 5874 5873 5873 5873 5872 5872 5872 5873 5874 5872 5870 5870 5870 5869 5869 5868 5868 5867 5867 5866 5866 5866 5866 5866 5866 5866 5866 5866 5866 5866 5866 5866 5866 5866 5866 5867 5868 5868 5869 5869
5874 5874 5875 5875 5875 5874 5874 5874 5874 5874 5873 5873 5872 5872 5872 5871 5872 5871 5870 5870 5869 5869 5868 5868 5867 5867 5866 5866 5865 5865 5865 5865 5865 5865 5865 5865 5864 5864 5864 5864 5864 5864 5864 5864 5864 5865 5866 5867 5868
5874 5875 5876 5875 5874 5874 5874 5874 5874 5873 5873 5873 5872 5872 5872 5871 5871 5870 5870 5869 5869 5868 5867 5867 5866 5866 5865 5865 5864 5864 5864 5864 5864 5864 5863 5863 5863 5863 5863 5862 5863 5862 5861 5861 5861 5862 5864 5865 5866
5875 5876 5876 5875 5874 5874 5874 5874 5873 5873 5873 5872 5872 5872 5871 5871 5870 5870 5869 5869 5868 5867 5866 5866 5865 5865 5864 5863 5863 5863 5863 5863 5862 5862 5862 5862 5862 5861 5861 5861 5861 5861 5859 5857 5856 5859 5862 5863 5864
5875 5876 5876 5874 5874 5874 5874 5873 5873 5873 5872 5872 5872 5871 5871 5871 5870 5869 5869 5868 5868 5867 5866 5865 5864 5864 5863 5862 5862 5861 5861 5861 5861 5860 5860 5860 5860 5860 5860 5860 5859 5859 5858 5856 5856 5858 5860 5861 5861
5876 5876 5876 5875 5874 5874 5874 5873 5873 5872 5872 5872 5871 5871 5871 5870 5869 5869 5868 5868 5867 5866 5865 5864 5863 5863 5862 5862 5861 5861 5860 5860 5859 5859 5859 5859 5859 5859 5858 5858 5858 5858 5858 5857 5857 5858 5859 5860 5860
5877 5876 5875 5875 5875 5874 5874 5873 5873 5872 5872 5871 5871 5871 5870 5870 5869 5868 5868 5867 5866 5865 5865 5864 5863 5862 5861 5861 5860 5860 5859 5859 5858 5858 5858 5857 5857 5857 5857 5857 5857 5857 5857 5857 5857 5857 5858 5858 5859
5877 5877 5875 5875 5875 5874 5874 5873 5872 5872 5872 5871 5871 5870 5870 5869 5869 5868 5867 5866 5865 5864 5864 5863 5862 5861 5861 5860 5859 5859 5858 5858 5857 5857 5856 5856 5856 5856 5856 5856 5856 5856 5856 5856 5856 5856 5856 5857 5857
5877 5878 5876 5876 5875 5874 5874 5873 5873 5872 5871 5871 5870 5870 5870 5869 5868 5867 5866 5866 5865 5864 5863 5862 5861 5860 5860 5859 5858 5858 5857 5857 5856 5856 5855 5855 5855 5855 5854 5854 5854 5854 5854 5854 5854 5854 5855 5855 5855
5878 5877 5876 5876 5875 5874 5874 5873 5873 5872 5871 5871 5870 5870 5869 5868 5868 5867 5866 5865 5864 5863 5862 5861 5860 5860 5859 5858 5857 5857 5856 5856 5855 5855 5854 5854 5854 5854 5853 5853 5853 5853 5853 5853 5853 5853 5853 5853 5853
5877 5877 5876 5876 5875 5875 5874 5873 5873 5872 5871 5871 5870 5869 5868 5868 5867 5866 5865 5864 5864 5862 5861 5860 5860 5859 5858 5857 5856 5856 5855 5855 5854 5854 5853 5853 5853 5852 5852 5852 5852 5852 5852 5852 5851 5851 5851 5851 5852
5877 5877 5876 5876 5875 5875 5874 5873 5873 5872 5872 5870 5869 5869 5868 5867 5866 5866 5865 5864 5863 5862 5861 5860 5859 5858 5857 5857 5856 5855 5855 5854 5853 5853 5852 5852 5851 5851 5851 5851 5851 5851 5851 5850 5850 5850 5850 5849 5850
5877 5877 5876 5876 5875 5875 5874 5873 5872 5872 5871 5870 5869 5868 5867 5866 5866 5865 5864 5863 5863 5861 5860 5859 5859 5858 5857 5856 5855 5854 5854 5853 5852 5852 5851 5851 5850 5850 5850 5850 5849 5849 5849 5849 5849 5848 5848 5848 5848
5877 5876 5876 5876 5875 5874 5874 5873 5872 5871 5871 5870 5869 5868 5867 5865 5865 5864 5863 5863 5862 5861 5860 5859 5858 5857 5856 5855 5855 5854 5853 5852 5852 5851 5850 5850 5849 5849 5849 5848 5848 5848 5848 5847 5847 5847 5847 5847 5846
5876 5876 5876 5875 5875 5874 5874 5873 5872 5871 5870 5869 5869 5868 5867 5865 5864 5863 5863 5862 5861 5860 5859 5858 5857 5857 5856 5855 5854 5853 5852 5851 5851 5850 5849 5849 5848 5848 5848 5847 5847 5847 5846 5846 5846 5846 5845 5845 5845
5875 5875 5875 5875 5874 5873 5874 5873 5871 5870 5870 5869 5868 5867 5866 5865 5864 5863 5862 5861 5860 5859 5859 5858 5857 5856 5855 5854 5853 5852 5851 5851 5850 5849 5849 5848 5847 5847 5846 5846 5846 5846 5845 5845 5845 5844 5844 5844 5843
5875 5875 5874 5874 5873 5872 5873 5872 5871 5869 5869 5868 5867 5867 5865 5864 5863 5863 5862 5861 5860 5859 5858 5857 5856 5855 5854 5853 5852 5851 5851 5850 5849 5848 5848 5847 5846 5846 5845 5845 5845 5844 5844 5844 5844 5843 5843 5842 5842
5874 5874 5873 5873 5872 5871 5871 5870 5870 5868 5868 5867 5866 5866 5865 5864 5863 5862 5861 5860 5859 5858 5857 5856 5855 5855 5854 5852 5851 5850 5849 5849 5848 5847 5846 5846 5845 5844 5844 5844 5843 5843 5842 5842 5842 5842 5841 5841 5841
5873 5873 5872 5872 5871 5871 5870 5869 5869 5868 5867 5866 5865 5865 5864 5863 5862 5861 5860 5859 5858 5857 5856 5855 5854 5854 5853 5852 5851 5850 5849 5848 5847 5846 5845 5844 5844 5843 5843 5842 5842 5841 5841 5841 5840 5840 5840 5840 5839
5871 5871 5871 5871 5870 5869 5868 5868 5867 5866 5866 5865 5864 5863 5862 5861 5861 5860 5859 5858 5857 5856 5855 5854 5854 5853 5852 5851 5850 5849 5848 5847 5846 5845 5844 5843 5842 5841 5841 5841 5840 5840 5839 5839 5839 5838 5838 5838 5837
5870 5870 5869 5869 5868 5868 5867 5867 5866 5865 5864 5864 5862 5862 5861 5860 5859 5859 5858 5857 5856 5855 5854 5853 5852 5852 5851 5850 5849 5848 5847 5846 5844 5843 5842 5841 5840 5840 5840 5839 5839 5839 5838 5838 5837 5837 5836 5836 5835
5868 5868 5867 5867 5867 5866 5866 5865 5864 5863 5863 5862 5861 5860 5859 5859 5858 5857 5856 5855 5854 5853 5852 5852 5851 5850 5849 5848 5847 5847 5846 5844 5843 5842 5841 5840 5839 5838 5838 5838 5837 5837 5836 5836 5836 5835 5835 5834 5833
5865 5865 5865 5865 5864 5864 5864 5863 5863 5861 5860 5860 5859 5858 5857 5857 5856 5855 5854 5854 5853 5852 5851 5850 5849 5848 5848 5847 5846 5845 5844 5843 5841 5840 5839 5838 5837 5836 5836 5836 5835 5835 5835 5834 5834 5833 5833 5832 5831
5863 5863 5863 5863 5862 5862 5862 5861 5861 5859 5858 5858 5857 5856 5855 5854 5854 5853 5852 5851 5851 5850 5849 5848 5847 5847 5846 5845 5844 5843 5842 5841 5839 5838 5837 5836 5835 5835 5834 5833 5833 5833 5833 5832 5832 5831 5830 5830 5829
5861 5861 5861 5860 5860 5860 5860 5859 5859 5857 5857 5856 5855 5854 5853 5852 5851 5851 5850 5849 5848 5848 5847 5846 5845 5844 5843 5842 5841 5841 5839 5838 5837 5836 5835 5834 5833 5833 5832 5831 5831 5831 5830 5830 5830 5829 5828 5827 5827
5857 5858 5858 5859 5858 5858 5857 5856 5856 5855 5854 5853 5852 5851 5850 5850 5849 5848 5847 5847 5846 5845 5844 5844 5843 5842 5841 5840 5839 5838 5837 5836 5835 5834 5833 5832 5831 5830 5830 5829 5828 5828 5828 5827 5827 5826 5826 5825 5824
5853 5854 5854 5854 5854 5854 5854 5853 5852 5852 5851 5851 5849 5848 5848 5847 5846 5845 5844 5844 5843 5842 5841 5841 5840 5839 5838 5837 5836 5835 5834 5833 5833 5832 5830 5829 5829 5828 5827 5826 5826 5825 5825 5824 5824 5823 5823 5822 5821
5850 5850 5850 5850 5850 5850 5851 5850 5849 5848 5847 5847 5846 5845 5845 5844 5843 5842 5840 5840 5840 5839 5838 5837 5837 5836 5835 5834 5833 5832 5832 5831 5830 5829 5828 5827 5826 5825 5825 5824 5823 5822 5822 5821 5820 5820 5819 5819 5818
5846 5846 5845 5846 5846 5847 5847 5847 5844 5844 5844 5843 5843 5842 5841 5840 5839 5838 5837 5836 5836 5835 5835 5834 5833 5833 5832 5831 5831 5830 5829 5828 5827 5826 5825 5824 5823 5822 5821 5821 5820 5819 5818 5818 5817 5816 5816 5815 5815
5840 5841 5841 5842 5841 5841 5841 5843 5840 5840 5840 5839 5838 5837 5837 5836 5835 5834 5833 5832 5832 5831 5831 5830 5830 5829 5829 5828 5827 5826 5825 5824 5824 5823 5822 5821 5820 5819 5818 5817 5816 5815 5815 5814 5813 5813 5812 5811 5811